Location: Barcelona
(41.3830°N, 2.1830°E)
Time: 12:39:32
(UTC+02:00)

ISS - Pass Details

Date: 31 May 2020
Orbit: 417 x 419 km, 51.6° (Epoch: 31 May)

Event Time Altitude Azimuth Distance (km) Brightness Sun altitude
Rises 22:22:13 0° 308° (NW) 2,366 2.3 -10.5°
Reaches altitude 10° 22:24:22 10° 313° (NW) 1,500 0.7 -10.8°
Maximum altitude 22:27:40 53° 31° (NNE) 519 -3.2 -11.3°
Enters shadow 22:30:08 16° 106° (ESE) 1,171 -2.0 -11.6°
